Starlink 2435

operational
NORAD ID: 47843 Int'l Des: 2021-018 Owner: SPXS Country: US Constellation: starlink
LEOCIRCULARSTARLINK_TYPE

About Starlink 2435

Description loading...

Live Position

Loading 3D Globe...

Upcoming Passes

Altitude History

Altitude vs Time

uPlot chart will show altitude changes over time

Two-Line Element Set

1 47843U 21018BJ 25305.78166042 -.00001120 00000-0 -56289-4 0 9997
2 47843 53.0539 110.8164 0001721 88.9768 271.1418 15.06388671257262
Epoch: Nov 1, 2025 • Age: 25 hours

Current Status

Altitude 547.0 km
Velocity 7.59 km/s
Sub-Earth Point 14.34°N, 57.53°W
Launch Date Mar 11, 2021
Age 4.6 years
Type internet

Technical Details

Classification Payload
Mass 260.00 kg
Dry Mass 248.00 kg
Total Mass 260.00 kg
Length 0.20 m
Diameter 2.80 m
Span 9.00 m
Shape Box + pan
Manufacturer SPXS
Bus Type Starlink
Phase Status In Orbit
Owner/State SPXS/US

Large Constellations

Loading constellations...